When you browse on this site, cookies collect data to enhance your experience and personalize the content and advertising you see.
Visit our Privacy Policy to learn more. By continuing to use the site, you agree to this use of cookies and data.
  • In Spain
  • List of Countries
  • For 7 days
  • Water Temperature
  • Weather Map
  • Weather Widgets
  • user-avatar
    Login

    Hourly Weather Cheremisino

    Today, 18 August, Sunday

    Time Temperature Precipitation Wind Pressure Humidity
    00:00 +18°C° 3.1 mm 4 mps 742 mmHg 98%
    01:00 +18°C° 1.3 mm 4 mps 742 mmHg 97%
    02:00 +18°C° 1.3 mm 4 mps 741 mmHg 97%
    03:00 +18°C° 1.3 mm 4 mps 741 mmHg 97%
    04:00 +18°C° 0.1 mm 4 mps 741 mmHg 97%
    05:00 +18°C° 0.1 mm 4 mps 741 mmHg 97%
    06:00 +18°C° 0.1 mm 4 mps 741 mmHg 97%
    07:00 +18°C° 0 mm 4 mps 741 mmHg 95%
    08:00 +18°C° 0 mm 4 mps 742 mmHg 93%
    09:00 +19°C° 0 mm 4 mps 742 mmHg 91%
    10:00 +19°C° 0 mm 4 mps 742 mmHg 89%
    11:00 +20°C° 0 mm 4 mps 742 mmHg 87%
    12:00 +20°C° 0 mm 4 mps 742 mmHg 84%
    13:00 +21°C° 0 mm 4 mps 742 mmHg 80%
    14:00 +22°C° 0 mm 3 mps 743 mmHg 76%
    15:00 +24°C° 0 mm 3 mps 743 mmHg 72%
    16:00 +24°C° 0.2 mm 2 mps 743 mmHg 75%
    17:00 +23°C° 0.2 mm 2 mps 743 mmHg 78%
    18:00 +23°C° 0.2 mm 1 mps 743 mmHg 81%
    19:00 +21°C° 0.3 mm 1 mps 744 mmHg 85%
    20:00 +19°C° 0.3 mm 2 mps 744 mmHg 90%
    21:00 +17°C° 0.3 mm 2 mps 744 mmHg 94%
    22:00 +16°C° 0 mm 2 mps 744 mmHg 95%
    23:00 +16°C° 0 mm 2 mps 745 mmHg 96%

    Tomorrow, 19 August, Monday

    Time Temperature Precipitation Wind Pressure Humidity
    00:00 +15°C° 0 mm 2 mps 745 mmHg 97%
    01:00 +14°C° 0 mm 2 mps 745 mmHg 97%
    02:00 +14°C° 0 mm 2 mps 745 mmHg 97%
    03:00 +14°C° 0 mm 2 mps 746 mmHg 98%
    04:00 +13°C° 0 mm 3 mps 746 mmHg 97%
    05:00 +14°C° 0 mm 3 mps 746 mmHg 96%
    06:00 +14°C° 0 mm 3 mps 747 mmHg 96%
    07:00 +16°C° 0 mm 3 mps 747 mmHg 94%
    08:00 +15°C° 0 mm 4 mps 747 mmHg 92%
    09:00 +17°C° 0 mm 4 mps 748 mmHg 90%
    10:00 +18°C° 0 mm 4 mps 748 mmHg 87%
    11:00 +18°C° 0 mm 4 mps 748 mmHg 85%
    12:00 +19°C° 0 mm 4 mps 749 mmHg 82%
    13:00 +20°C° 0 mm 4 mps 749 mmHg 77%
    14:00 +22°C° 0 mm 3 mps 749 mmHg 72%
    15:00 +24°C° 0 mm 3 mps 749 mmHg 68%
    16:00 +24°C° 0 mm 3 mps 750 mmHg 70%
    17:00 +24°C° 0 mm 2 mps 750 mmHg 73%
    18:00 +24°C° 0 mm 2 mps 750 mmHg 75%
    19:00 +21°C° 0 mm 2 mps 750 mmHg 80%
    20:00 +19°C° 0 mm 2 mps 750 mmHg 85%
    21:00 +18°C° 0 mm 2 mps 750 mmHg 89%
    22:00 +17°C° 0 mm 2 mps 751 mmHg 90%
    23:00 +17°C° 0 mm 2 mps 751 mmHg 91%

    Day after tomorrow, 20 August, Tuesday

    Time Temperature Precipitation Wind Pressure Humidity
    00:00 +16°C° 0 mm 2 mps 751 mmHg 91%
    01:00 +16°C° 0 mm 2 mps 751 mmHg 91%
    02:00 +16°C° 0 mm 2 mps 751 mmHg 91%
    03:00 +16°C° 0 mm 2 mps 752 mmHg 92%
    04:00 +16°C° 0 mm 2 mps 752 mmHg 91%
    05:00 +16°C° 0 mm 2 mps 752 mmHg 91%
    06:00 +16°C° 0 mm 2 mps 752 mmHg 91%
    07:00 +18°C° 0 mm 2 mps 752 mmHg 87%
    08:00 +19°C° 0 mm 2 mps 752 mmHg 82%
    09:00 +21°C° 0 mm 3 mps 752 mmHg 77%
    10:00 +22°C° 0 mm 3 mps 752 mmHg 74%
    11:00 +25°C° 0 mm 3 mps 752 mmHg 70%
    12:00 +26°C° 0 mm 3 mps 752 mmHg 67%
    13:00 +26°C° 0 mm 3 mps 752 mmHg 66%
    14:00 +27°C° 0 mm 3 mps 752 mmHg 66%
    15:00 +27°C° 0 mm 3 mps 752 mmHg 66%
    16:00 +27°C° 0 mm 3 mps 752 mmHg 69%
    17:00 +27°C° 0 mm 2 mps 752 mmHg 72%
    18:00 +26°C° 0 mm 2 mps 752 mmHg 76%
    19:00 +25°C° 0.1 mm 2 mps 752 mmHg 80%
    20:00 +23°C° 0.1 mm 2 mps 752 mmHg 85%
    21:00 +21°C° 0.1 mm 2 mps 752 mmHg 90%
    22:00 +20°C° 0 mm 2 mps 752 mmHg 91%
    23:00 +20°C° 0 mm 2 mps 753 mmHg 92%

    21 August, Wednesday

    Time Temperature Precipitation Wind Pressure Humidity
    00:00 +20°C° 0 mm 2 mps 753 mmHg 93%
    01:00 +19°C° 0 mm 2 mps 753 mmHg 93%
    02:00 +19°C° 0 mm 2 mps 753 mmHg 94%
    03:00 +19°C° 0 mm 2 mps 753 mmHg 94%
    04:00 +19°C° 0 mm 2 mps 753 mmHg 95%
    05:00 +19°C° 0 mm 2 mps 753 mmHg 95%
    06:00 +20°C° 0 mm 1 mps 753 mmHg 95%
    07:00 +21°C° 0 mm 1 mps 753 mmHg 91%
    08:00 +22°C° 0 mm 1 mps 753 mmHg 87%
    09:00 +24°C° 0 mm 1 mps 754 mmHg 83%
    10:00 +25°C° 0 mm 1 mps 754 mmHg 78%
    11:00 +26°C° 0 mm 1 mps 753 mmHg 73%
    12:00 +27°C° 0 mm 1 mps 753 mmHg 68%
    13:00 +28°C° 0 mm 1 mps 753 mmHg 66%
    14:00 +28°C° 0 mm 1 mps 753 mmHg 64%
    15:00 +29°C° 0 mm 1 mps 753 mmHg 62%
    16:00 +28°C° 0 mm 1 mps 752 mmHg 65%
    17:00 +28°C° 0 mm 1 mps 752 mmHg 69%
    18:00 +26°C° 0 mm 0 mps 752 mmHg 73%
    19:00 +26°C° 0.2 mm 1 mps 752 mmHg 77%
    20:00 +25°C° 0.2 mm 1 mps 752 mmHg 80%
    21:00 +23°C° 0.2 mm 2 mps 752 mmHg 84%
    22:00 +23°C° 0.5 mm 2 mps 751 mmHg 86%
    23:00 +21°C° 0.5 mm 2 mps 751 mmHg 88%

    22 August, Thursday

    Time Temperature Precipitation Wind Pressure Humidity
    00:00 +21°C° 0.5 mm 3 mps 751 mmHg 90%
    01:00 +20°C° 0.7 mm 3 mps 751 mmHg 91%
    02:00 +20°C° 0.7 mm 3 mps 751 mmHg 92%
    03:00 +20°C° 0.7 mm 3 mps 750 mmHg 92%
    04:00 +20°C° 0.1 mm 3 mps 750 mmHg 93%
    05:00 +19°C° 0.1 mm 3 mps 750 mmHg 93%
    06:00 +19°C° 0.1 mm 3 mps 750 mmHg 93%
    07:00 +21°C° 0 mm 3 mps 750 mmHg 89%
    08:00 +22°C° 0 mm 3 mps 750 mmHg 85%
    09:00 +23°C° 0 mm 4 mps 750 mmHg 82%
    10:00 +25°C° 0 mm 4 mps 750 mmHg 77%
    11:00 +26°C° 0 mm 4 mps 750 mmHg 72%
    12:00 +27°C° 0 mm 4 mps 750 mmHg 68%
    13:00 +26°C° 0.3 mm 4 mps 750 mmHg 72%
    14:00 +25°C° 0.3 mm 5 mps 750 mmHg 77%
    15:00 +23°C° 0.3 mm 5 mps 750 mmHg 81%
    16:00 +22°C° 0 mm 4 mps 750 mmHg 81%
    17:00 +21°C° 0 mm 4 mps 750 mmHg 81%
    18:00 +20°C° 0 mm 3 mps 751 mmHg 80%
    19:00 +19°C° 0 mm 3 mps 751 mmHg 80%
    20:00 +19°C° 0 mm 3 mps 751 mmHg 80%
    21:00 +18°C° 0 mm 3 mps 752 mmHg 80%
    22:00 +18°C° 0 mm 3 mps 752 mmHg 78%
    23:00 +18°C° 0 mm 3 mps 752 mmHg 77%

    23 August, Friday

    Time Temperature Precipitation Wind Pressure Humidity
    00:00 +17°C° 0 mm 2 mps 752 mmHg 75%
    01:00 +17°C° 0 mm 2 mps 752 mmHg 77%
    02:00 +17°C° 0 mm 2 mps 752 mmHg 79%
    03:00 +16°C° 0 mm 1 mps 753 mmHg 82%
    04:00 +16°C° 0 mm 1 mps 753 mmHg 85%
    05:00 +15°C° 0 mm 2 mps 753 mmHg 88%
    06:00 +14°C° 0 mm 2 mps 753 mmHg 91%
    07:00 +16°C° 0 mm 2 mps 753 mmHg 87%
    08:00 +17°C° 0 mm 2 mps 753 mmHg 82%
    09:00 +18°C° 0 mm 2 mps 753 mmHg 78%
    10:00 +19°C° 0 mm 2 mps 753 mmHg 72%
    11:00 +20°C° 0 mm 2 mps 753 mmHg 66%
    12:00 +21°C° 0 mm 2 mps 753 mmHg 61%
    13:00 +21°C° 0 mm 2 mps 753 mmHg 59%
    14:00 +23°C° 0 mm 2 mps 753 mmHg 56%
    15:00 +23°C° 0 mm 2 mps 752 mmHg 54%
    16:00 +23°C° 0 mm 2 mps 752 mmHg 59%
    17:00 +22°C° 0 mm 1 mps 752 mmHg 63%
    18:00 +22°C° 0 mm 1 mps 752 mmHg 67%
    19:00 +19°C° 0 mm 2 mps 752 mmHg 70%
    20:00 +17°C° 0 mm 2 mps 752 mmHg 73%
    21:00 +16°C° 0 mm 2 mps 752 mmHg 76%
    22:00 +16°C° 0 mm 2 mps 752 mmHg 77%
    23:00 +15°C° 0 mm 2 mps 752 mmHg 77%
    Show more